Location: Bord�res
(43.2000°N, 0.2167°W)
Time: 11:38:07
(UTC+00:00)

Cosmos 1602 - Pass Details

Date: 03 March 2021
Orbit: 512 x 534 km, 82.5° (Epoch: 21 April)

Event Time Altitude Azimuth Distance (km) Brightness Sun altitude
Rises 18:38:48 0° 188° (S) 2,644 7.4 -9.2°
Reaches altitude 10° 18:40:56 10° 189° (S) 1,764 6.5 -9.6°
Maximum altitude 18:44:49 85° 279° (W) 538 3.8 -10.3°
Drops below altitude 10° 18:48:45 10° 7° (N) 1,791 6.4 -11.0°
Sets 18:50:55 0° 8° (N) 2,689 7.3 -11.4°
